Starlink 32711

operational
NORAD ID: 62435 Int'l Des: 2024-251 Owner: SPXS Country: US Constellation: starlink
LEOCIRCULAR

About Starlink 32711

Description loading...

Live Position

Loading 3D Globe...

Upcoming Passes

Altitude History

Altitude vs Time

uPlot chart will show altitude changes over time

Two-Line Element Set

1 62435U 24251D 25257.77409922 .00014872 00000-0 51302-3 0 9991
2 62435 53.1591 72.5071 0001085 79.2563 280.8560 15.30214785 41015
Epoch: Sep 14, 2025 • Age: 26 hours

Current Status

Altitude 475.2 km
Velocity 7.63 km/s
Sub-Earth Point 8.12°N, 59.6°W
Launch Date Dec 29, 2024
Age 0.7 years
Type internet

Technical Details

Classification Payload
Mass 730.00 kg
Dry Mass 700.00 kg
Total Mass 730.00 kg
Length 0.30 m
Diameter 4.10 m
Span 29.00 m
Shape Box + pan
Manufacturer SPXS
Bus Type Starlink V2M
Phase Status In Orbit
Owner/State SPXS/US

Large Constellations

Loading constellations...